Location: Hamilton
(43.2500°N, 79.8330°W)
Time: 16:07:12
(UTC-04:00)

Amateur Radio Satellites - All Passes

Search period start: 20 September 2017 15:37
Search period end: 21 September 2017 15:37
Location: Hamilton, 43.2500°N, 79.8330°W

Satellite Date Start Highest point End Downlink Frequencies (MHz)
Time Altitude Azimuth
Oscar 19 20 Sep 15:37:57 15:40:07 12° 272° (W) 15:42:17 437.125/150
DX 1 20 Sep 15:41:16 15:45:12 35° 291° (WNW) 15:49:07 434.975-435.025
UKube-1 20 Sep 15:41:53 15:46:04 51° 288° (WNW) 15:50:14 .
YUBILEINY 20 Sep 15:49:44 15:55:21 18° 301° (WNW) 16:01:01 435.215
PCSat 20 Sep 15:56:07 16:01:21 53° 114° (ESE) 16:06:39 145.827
AO-7 20 Sep 15:56:47 16:05:09 83° 252° (WSW) 16:13:32 .
NO-84 20 Sep 15:58:46 16:02:14 38° 327° (NNW) 16:05:25 435.350 FM
ITUPSAT 1 20 Sep 16:05:45 16:10:06 33° 97° (E) 16:14:26 437.325
MOZHAYETS 4 20 Sep 16:11:12 16:15:34 38° 98° (E) 16:19:52
CUBESAT XI-V 20 Sep 16:29:30 16:31:34 13° 89° (E) 16:33:39 437.345
ITAMSAT 1 20 Sep 16:31:13 16:36:14 52° 259° (W) 16:41:18 435.822/435.867
SO-50 20 Sep 16:34:24 16:38:39 40° 311° (NW) 16:42:55 436.795
DOVE 4 20 Sep 16:34:56 16:37:36 16° 64° (ENE) 16:40:12 437.250
BEESAT 20 Sep 16:44:38 16:49:28 82° 103° (ESE) 16:54:15 436.000
XW-2D 20 Sep 17:19:27 17:20:48 12° 63° (ENE) 17:22:08 145.860 - 145.880
HO-68 20 Sep 17:20:20 17:22:29 12° 46° (NE) 17:24:38 435.675
XW-2B 20 Sep 17:30:43 17:32:55 15° 65° (ENE) 17:35:08 145.730 - 145.750
XW-2F 20 Sep 17:33:36 17:35:52 15° 65° (ENE) 17:38:08 145.980 - 146.000
RS-15 20 Sep 17:34:34 17:44:16 31° 257° (WSW) 17:53:36 29.354- 29.394
NO-84 20 Sep 17:38:42 17:40:18 13° 346° (NNW) 17:41:52 435.350 FM
PCSat 20 Sep 17:40:28 17:45:03 27° 314° (NW) 17:49:39 145.827
ITUPSAT 1 20 Sep 17:43:42 17:47:49 29° 294° (WNW) 17:51:56 437.325
MOZHAYETS 4 20 Sep 17:48:48 17:52:29 24° 294° (WNW) 17:56:09
XW-2C 20 Sep 17:50:44 17:53:54 25° 69° (ENE) 17:57:05 145.795 - 145.815
CUTE-I 20 Sep 17:53:59 17:58:37 31° 66° (ENE) 18:03:15 437.470
AO-7 20 Sep 17:54:04 17:59:04 17° 271° (W) 18:04:06 .
LilacSat-2 20 Sep 17:58:20 18:01:48 32° 71° (ENE) 18:05:17 437.200
CUBESAT XI-V 20 Sep 18:04:47 18:09:25 67° 286° (WNW) 18:13:59 437.345
NUDT-PHONESAT 20 Sep 18:07:47 18:10:59 27° 70° (ENE) 18:14:12 437.300
DOVE 4 20 Sep 18:10:31 18:14:56 53° 260° (W) 18:19:10 437.250
BEESAT 20 Sep 18:24:24 18:26:33 13° 301° (WNW) 18:28:43 436.000
KAITUO 1B 20 Sep 18:29:57 18:33:39 52° 74° (ENE) 18:37:22 145.475/437.950
KKS-1 20 Sep 18:33:49 18:38:17 87° 107° (ESE) 18:42:44 437.445
CUBEBUG 2 20 Sep 18:36:49 18:37:30 10° 59° (ENE) 18:38:12 437.445
CUTE 1.7 + AOD 2 20 Sep 18:41:29 18:44:41 21° 66° (ENE) 18:47:54 437.475
XW-2D 20 Sep 18:50:40 18:54:27 60° 259° (W) 18:58:17 145.860 - 145.880
HO-68 20 Sep 19:01:45 19:08:38 54° 67° (ENE) 19:15:34 435.675
XW-2B 20 Sep 19:03:04 19:06:44 44° 262° (W) 19:10:26 145.730 - 145.750
XW-2F 20 Sep 19:05:58 19:09:37 42° 262° (W) 19:13:18 145.980 - 146.000
STARS 20 Sep 19:08:14 19:12:40 84° 107° (ESE) 19:17:04 437.465
NO-84 20 Sep 19:17:51 19:18:51 11° 8° (N) 19:19:51 435.350 FM
XW-2A 20 Sep 19:17:59 19:20:21 18° 67° (ENE) 19:22:44 145.665 - 145.685
XW-2C 20 Sep 19:24:50 19:28:00 24° 265° (W) 19:31:13 145.795 - 145.815
LilacSat-2 20 Sep 19:33:19 19:36:08 19° 267° (W) 19:38:58 437.200
CUTE-I 20 Sep 19:33:43 19:38:34 36° 263° (W) 19:43:26 437.470
NUDT-PHONESAT 20 Sep 19:41:57 19:44:50 21° 266° (W) 19:47:45 437.300
AO-73 20 Sep 19:43:55 19:46:34 16° 63° (ENE) 19:49:16 145.935
ZACube-1 20 Sep 19:44:16 19:47:12 18° 64° (ENE) 19:50:10 437.345
STRAND 1 20 Sep 19:47:41 19:51:22 19° 92° (E) 19:55:02 437.568
Oscar 11 20 Sep 19:47:57 19:49:54 13° 61° (ENE) 19:51:51 .
SEEDS 20 Sep 19:54:40 19:58:55 78° 75° (ENE) 20:03:11 437.485
KAITUO 1B 20 Sep 20:06:42 20:07:57 11° 270° (W) 20:09:12 145.475/437.950
CUBEBUG 2 20 Sep 20:09:11 20:13:23 84° 258° (WSW) 20:17:45 437.445
KKS-1 20 Sep 20:13:06 20:14:08 11° 301° (WNW) 20:15:11 437.445
CUTE 1.7 + AOD 2 20 Sep 20:16:17 20:20:16 37° 263° (W) 20:24:17 437.475
UWE-3 20 Sep 20:23:19 20:27:34 81° 78° (ENE) 20:31:59 435.000/436.395/437.385
BEESAT 3 20 Sep 20:25:20 20:28:18 20° 112° (ESE) 20:31:17 437.485
AAUSAT CUBESAT 2 20 Sep 20:28:00 20:32:10 82° 75° (ENE) 20:36:22 437.432
Tancredo 1 20 Sep 20:30:38 20:32:12 14° 134° (SE) 20:33:47 437.200
STARS 20 Sep 20:47:08 20:48:19 11° 301° (WNW) 20:49:30 437.465
XW-2A 20 Sep 20:49:57 20:52:53 26° 264° (W) 20:55:50 145.665 - 145.685
HO-68 20 Sep 20:50:30 20:56:38 31° 265° (W) 21:02:50 435.675
NO-84 20 Sep 20:54:21 20:57:04 30° 30° (NNE) 20:59:40 435.350 FM
DELFI C3 20 Sep 20:55:36 20:57:40 14° 64° (ENE) 20:59:46 145.870
Max Valier Satellite 20 Sep 21:08:13 21:10:01 13° 64° (ENE) 21:11:50 145.860
AO-73 20 Sep 21:18:08 21:22:20 53° 261° (W) 21:26:40 145.935
ZACube-1 20 Sep 21:18:59 21:23:05 46° 262° (W) 21:27:21 437.345
Oscar 11 20 Sep 21:21:07 21:25:27 69° 259° (W) 21:29:49 .
STRAND 1 20 Sep 21:25:51 21:30:51 54° 289° (WNW) 21:35:51 437.568
nSIGHT-1 20 Sep 21:48:30 21:50:47 18° 134° (SE) 21:53:05 .
AO-85 20 Sep 22:00:26 22:04:18 69° 120° (ESE) 22:08:14 145.980
BEESAT 2 20 Sep 22:00:47 22:04:45 65° 121° (ESE) 22:08:47 435.950
BEESAT 3 20 Sep 22:01:46 22:05:35 40° 309° (NW) 22:09:26 437.485
Tancredo 1 20 Sep 22:03:50 22:06:29 54° 331° (NNW) 22:09:10 437.200
YUBILEINY 20 Sep 22:04:59 22:06:30 10° 51° (NE) 22:08:00 435.215
EO-88 20 Sep 22:14:29 22:18:05 59° 75° (ENE) 22:21:44 145.990 - 145.960
FO-29 20 Sep 22:16:14 22:21:32 54° 101° (E) 22:27:19 435.910
UNISAT 6 20 Sep 22:26:20 22:30:09 24° 94° (E) 22:33:58 437.425
DELFI C3 20 Sep 22:28:09 22:32:00 50° 260° (W) 22:35:53 145.870
NO-84 20 Sep 22:31:54 22:34:19 23° 229° (SW) 22:36:39 435.350 FM
ISS 20 Sep 22:37:49 22:40:59 48° 142° (SE) 22:44:11 437.550
Max Valier Satellite 20 Sep 22:39:52 22:43:26 46° 261° (W) 22:47:03 145.860
TIGRISAT 20 Sep 22:50:37 22:54:59 39° 98° (E) 22:59:22 435.000
PRISM 20 Sep 22:50:40 22:53:41 20° 94° (E) 22:56:42 437.425
ESTCUBE 1 20 Sep 22:59:12 23:02:43 23° 66° (ENE) 23:06:15 437.505/2401.250
PCSat 20 Sep 23:01:15 23:03:29 12° 33° (NNE) 23:05:41 145.827
LO-87 20 Sep 23:21:51 23:25:15 48° 73° (ENE) 23:28:41 145.935 - 145.965
nSIGHT-1 20 Sep 23:23:38 23:26:50 59° 331° (NNW) 23:30:04 .
SO-50 20 Sep 23:24:04 23:28:13 33° 46° (NE) 23:32:24 436.795
Tancredo 1 20 Sep 23:39:39 23:41:30 16° 350° (N) 23:43:20 437.200
BEESAT 2 20 Sep 23:40:14 23:42:54 17° 320° (NW) 23:45:37 435.950
AO-85 20 Sep 23:42:50 23:45:09 15° 322° (NW) 23:47:32 145.980
VELOX 1 20 Sep 23:44:21 23:46:26 13° 61° (ENE) 23:48:31 145.980
YUBILEINY 20 Sep 23:57:16 00:05:46 53° 75° (ENE) 00:14:14 435.215
EO-79 21 Sep 00:02:16 00:03:29 11° 89° (E) 00:04:42 145.935-145.965
FO-29 21 Sep 00:02:19 00:06:21 22° 297° (WNW) 00:10:37 435.910
UNISAT 6 21 Sep 00:02:39 00:06:55 37° 290° (WNW) 00:11:12 437.425
SPROUT 21 Sep 00:06:55 00:10:29 27° 68° (ENE) 00:14:04 437.525
QB50P2 21 Sep 00:13:19 00:16:05 17° 92° (E) 00:18:52 145.880/145.840
ISS 21 Sep 00:14:36 00:17:34 31° 339° (NNW) 00:20:34 437.550
PRISM 21 Sep 00:25:22 00:29:02 33° 290° (WNW) 00:32:41 437.425
TIGRISAT 21 Sep 00:27:45 00:31:26 24° 294° (WNW) 00:35:09 435.000
ESTCUBE 1 21 Sep 00:35:03 00:39:17 38° 262° (W) 00:43:33 437.505/2401.250
PCSat 21 Sep 00:42:49 00:48:09 54° 55° (NE) 00:53:26 145.827
AIST 2D 21 Sep 00:49:47 00:53:19 71° 284° (WNW) 00:56:48 435.315
NANOSAT C BR1 21 Sep 00:51:17 00:55:11 34° 97° (E) 00:59:05 145.865
LO-87 21 Sep 00:58:18 00:58:58 10° 270° (W) 00:59:36 145.935 - 145.965
nSIGHT-1 21 Sep 01:01:07 01:03:39 20° 350° (N) 01:06:12 .
DX 1 21 Sep 01:02:04 01:05:29 23° 66° (ENE) 01:08:54 434.975-435.025
UKube-1 21 Sep 01:02:55 01:05:29 16° 62° (ENE) 01:08:03 .
SO-50 21 Sep 01:04:32 01:08:40 33° 244° (WSW) 01:12:48 436.795
Tancredo 1 21 Sep 01:15:01 01:16:49 16° 10° (N) 01:18:37 437.200
VELOX 1 21 Sep 01:17:56 01:22:19 68° 257° (WSW) 01:26:43 145.980
DUCHIFAT 1 21 Sep 01:21:22 01:25:37 66° 102° (ESE) 01:29:50 145.980
50 SAT 21 Sep 01:25:48 01:28:59 44° 73° (ENE) 01:32:10 437.505
POLYITAN 1 21 Sep 01:30:09 01:34:27 78° 285° (WNW) 01:38:45 437.675
EO-79 21 Sep 01:35:26 01:39:41 68° 286° (WNW) 01:43:56 145.935-145.965
SPROUT 21 Sep 01:42:42 01:46:18 27° 264° (W) 01:49:57 437.525
QB50P2 21 Sep 01:48:00 01:52:06 45° 288° (WNW) 01:56:11 145.880/145.840
ISS 21 Sep 01:52:21 01:54:46 19° 360° (N) 01:57:12 437.550
YUBILEINY 21 Sep 01:54:35 02:02:12 35° 276° (W) 02:09:51 435.215
Oscar 19 21 Sep 02:06:01 02:10:21 26° 94° (E) 02:14:38 437.125/150
BUGSAT 1 21 Sep 02:09:29 02:13:38 59° 101° (E) 02:17:48 437.445
BEESAT 21 Sep 02:17:06 02:19:25 14° 59° (ENE) 02:21:43 436.000
M-CUBED/EXP-1 PRIME 21 Sep 02:22:47 02:26:10 76° 290° (WNW) 02:29:24 437.505
PCSat 21 Sep 02:26:57 02:31:10 23° 253° (WSW) 02:35:20 145.827
NANOSAT C BR1 21 Sep 02:27:23 02:30:42 22° 294° (WNW) 02:34:01 145.865
UKube-1 21 Sep 02:36:51 02:41:04 54° 260° (W) 02:45:17 .
DX 1 21 Sep 02:37:30 02:41:28 34° 262° (W) 02:45:27 434.975-435.025
nSIGHT-1 21 Sep 02:38:14 02:40:47 21° 10° (N) 02:43:21 .
Tancredo 1 21 Sep 02:49:11 02:51:51 49° 28° (NNE) 02:54:30 437.200
DUCHIFAT 1 21 Sep 02:58:47 03:00:44 13° 298° (WNW) 03:02:40 145.980
Gurwin Techsat 1B 21 Sep 03:04:32 03:09:50 62° 101° (ESE) 03:15:04 435.225
ITUPSAT 1 21 Sep 03:13:15 03:17:45 43° 70° (ENE) 03:22:17 437.325
MOZHAYETS 4 21 Sep 03:13:47 03:18:06 41° 70° (ENE) 03:22:27
O/OREOS (USA 219) 21 Sep 03:19:32 03:23:46 42° 107° (ESE) 03:28:03 437.305
ISS 21 Sep 03:29:00 03:31:59 30° 20° (NNE) 03:34:57 437.550
CUBESAT XI-V 21 Sep 03:33:34 03:36:24 16° 62° (ENE) 03:39:13 437.345
Oscar 19 21 Sep 03:44:57 03:49:46 40° 292° (WNW) 03:54:32 437.125/150
BUGSAT 1 21 Sep 03:46:22 03:48:31 14° 297° (WNW) 03:50:39 437.445
BEESAT 21 Sep 03:51:47 03:56:32 78° 257° (WSW) 04:01:20 436.000
AO-7 21 Sep 03:57:48 04:04:57 31° 96° (E) 04:12:00 .
KKS-1 21 Sep 04:00:17 04:01:04 10° 59° (ENE) 04:01:50 437.445
nSIGHT-1 21 Sep 04:14:21 04:17:36 61° 30° (NNE) 04:20:49 .
Tancredo 1 21 Sep 04:24:23 04:26:11 16° 225° (SW) 04:27:57 437.200
BEESAT 3 21 Sep 04:40:24 04:43:23 20° 42° (NE) 04:46:21 437.485
ITAMSAT 1 21 Sep 04:42:44 04:47:48 50° 100° (E) 04:52:51 435.822/435.867
Gurwin Techsat 1B 21 Sep 04:45:35 04:49:17 20° 299° (WNW) 04:52:59 435.225
AO-85 21 Sep 04:50:45 04:53:04 14° 37° (NE) 04:55:27 145.980
MOZHAYETS 4 21 Sep 04:51:55 04:55:24 21° 267° (W) 04:58:55
ITUPSAT 1 21 Sep 04:52:09 04:55:45 21° 267° (W) 04:59:23 437.325
O/OREOS (USA 219) 21 Sep 04:59:51 05:03:22 22° 305° (NW) 05:06:54 437.305
ISS 21 Sep 05:05:22 05:08:36 51° 218° (SW) 05:11:48 437.550
CUBESAT XI-V 21 Sep 05:08:35 05:13:15 62° 259° (WSW) 05:17:56 437.345
KKS-1 21 Sep 05:32:29 05:36:54 89° 260° (W) 05:41:21 437.445
RS-15 21 Sep 05:44:32 05:55:49 46° 109° (ESE) 06:07:09 29.354- 29.394
AO-7 21 Sep 05:50:01 05:58:10 62° 294° (WNW) 06:06:16 .
nSIGHT-1 21 Sep 05:51:22 05:53:38 18° 226° (SW) 05:55:55 .
STARS 21 Sep 06:05:25 06:09:46 84° 75° (ENE) 06:14:09 437.465
DOVE 4 21 Sep 06:07:46 06:11:36 33° 97° (E) 06:15:32 437.250
CUTE-I 21 Sep 06:12:39 06:13:27 10° 87° (E) 06:14:14 437.470
BEESAT 3 21 Sep 06:17:21 06:21:12 48° 241° (WSW) 06:24:58 437.485
BEESAT 2 21 Sep 06:17:23 06:21:23 53° 53° (NE) 06:25:18 435.950
ITAMSAT 1 21 Sep 06:22:56 06:26:55 23° 297° (WNW) 06:30:53 435.822/435.867
XW-2D 21 Sep 06:23:35 06:25:24 13° 91° (E) 06:27:12 145.860 - 145.880
AO-85 21 Sep 06:29:40 06:34:06 80° 56° (ENE) 06:38:52 145.980
XW-2B 21 Sep 06:35:12 06:37:45 17° 92° (E) 06:40:18 145.730 - 145.750
XW-2F 21 Sep 06:37:37 06:40:12 17° 93° (E) 06:42:45 145.980 - 146.000
XW-2C 21 Sep 06:55:43 06:59:07 30° 96° (E) 07:02:29 145.795 - 145.815
LilacSat-2 21 Sep 07:04:14 07:07:54 40° 98° (E) 07:11:31 437.200
STRAND 1 21 Sep 07:04:19 07:08:46 31° 66° (ENE) 07:13:13 437.568
NUDT-PHONESAT 21 Sep 07:10:13 07:13:35 31° 97° (E) 07:16:55 437.300
KAITUO 1B 21 Sep 07:33:42 07:37:27 65° 101° (E) 07:41:09 145.475/437.950
SEEDS 21 Sep 07:39:23 07:40:58 12° 89° (E) 07:42:33 437.485
AO-7 21 Sep 07:44:50 07:49:19 16° 316° (NW) 07:53:47 .
DOVE 4 21 Sep 07:45:54 07:49:09 22° 293° (WNW) 07:52:28 437.250
CUTE-I 21 Sep 07:48:54 07:54:15 83° 103° (ESE) 07:59:36 437.470
RS-15 21 Sep 07:55:48 08:08:00 62° 312° (NW) 08:20:12 29.354- 29.394
XW-2D 21 Sep 07:56:09 07:59:50 46° 287° (WNW) 08:03:28 145.860 - 145.880
BEESAT 2 21 Sep 07:56:19 07:58:41 15° 250° (WSW) 08:01:02 435.950
CUBEBUG 2 21 Sep 07:59:08 08:02:39 21° 92° (E) 08:06:13 437.445
CUTE 1.7 + AOD 2 21 Sep 07:59:52 08:03:43 33° 96° (E) 08:07:31 437.475
XW-2B 21 Sep 08:08:33 08:12:03 34° 289° (WNW) 08:15:30 145.730 - 145.750
XW-2A 21 Sep 08:10:52 08:13:02 16° 93° (E) 08:15:11 145.665 - 145.685
XW-2F 21 Sep 08:10:57 08:14:25 33° 289° (WNW) 08:17:50 145.980 - 146.000
AAUSAT CUBESAT 2 21 Sep 08:11:03 08:12:30 12° 89° (E) 08:13:56 437.432
AO-85 21 Sep 08:12:03 08:14:01 13° 251° (WSW) 08:16:01 145.980
UWE-3 21 Sep 08:12:37 08:15:37 17° 91° (E) 08:18:37 435.000/436.395/437.385
HO-68 21 Sep 08:15:33 08:22:33 51° 100° (E) 08:29:31 435.675
XW-2C 21 Sep 08:30:16 08:33:07 20° 293° (WNW) 08:35:56 145.795 - 145.815
FO-29 21 Sep 08:30:59 08:35:33 25° 65° (ENE) 08:39:50 435.910
LilacSat-2 21 Sep 08:39:28 08:41:50 16° 295° (WNW) 08:44:10 437.200
STRAND 1 21 Sep 08:43:17 08:47:52 33° 263° (W) 08:52:29 437.568
NUDT-PHONESAT 21 Sep 08:44:35 08:47:14 19° 293° (WNW) 08:49:52 437.300
AO-73 21 Sep 09:05:00 09:08:58 28° 95° (E) 09:12:52 145.935
ZACube-1 21 Sep 09:05:57 09:10:05 32° 96° (E) 09:14:10 437.345
Oscar 11 21 Sep 09:07:57 09:11:11 20° 93° (E) 09:14:24 .
KAITUO 1B 21 Sep 09:10:28 09:10:52 10° 298° (WNW) 09:11:17 145.475/437.950
SEEDS 21 Sep 09:12:54 09:17:03 60° 286° (WNW) 09:21:09 437.485
UNISAT 6 21 Sep 09:26:26 09:29:50 23° 66° (ENE) 09:33:19 437.425
CUTE-I 21 Sep 09:30:42 09:33:35 15° 302° (WNW) 09:36:29 437.470
CUBEBUG 2 21 Sep 09:34:59 09:39:25 44° 288° (WNW) 09:43:55 437.445
CUTE 1.7 + AOD 2 21 Sep 09:36:01 09:39:22 23° 293° (WNW) 09:42:40 437.475
PRISM 21 Sep 09:41:10 09:43:55 18° 64° (ENE) 09:46:40 437.425
XW-2A 21 Sep 09:42:46 09:45:48 30° 289° (WNW) 09:48:49 145.665 - 145.685
AAUSAT CUBESAT 2 21 Sep 09:44:16 09:48:20 60° 286° (WNW) 09:52:21 437.432
UWE-3 21 Sep 09:47:49 09:52:22 53° 287° (WNW) 09:56:54 435.000/436.395/437.385
TIGRISAT 21 Sep 09:50:17 09:54:14 36° 70° (ENE) 09:58:17 435.000
HO-68 21 Sep 10:03:43 10:10:00 34° 299° (WNW) 10:16:17 435.675
DELFI C3 21 Sep 10:04:39 10:07:19 17° 93° (E) 10:09:59 145.870
Max Valier Satellite 21 Sep 10:09:43 10:11:49 14° 91° (E) 10:13:55 145.860
RS-15 21 Sep 10:13:20 10:23:40 29° 343° (NNW) 10:33:50 29.354- 29.394
FO-29 21 Sep 10:14:54 10:20:29 45° 261° (W) 10:25:36 435.910
AO-73 21 Sep 10:41:07 10:45:09 31° 291° (WNW) 10:49:08 145.935
ZACube-1 21 Sep 10:42:21 10:46:14 27° 293° (WNW) 10:50:06 437.345
Oscar 11 21 Sep 10:43:25 10:47:27 38° 289° (WNW) 10:51:27 .
EO-79 21 Sep 10:56:46 10:57:24 10° 60° (ENE) 10:58:01 145.935-145.965
UNISAT 6 21 Sep 11:02:24 11:06:21 35° 263° (W) 11:10:24 437.425
QB50P2 21 Sep 11:07:23 11:09:49 15° 63° (ENE) 11:12:14 145.880/145.840
PRISM 21 Sep 11:14:59 11:18:53 41° 261° (W) 11:22:47 437.425
EO-88 21 Sep 11:15:26 11:19:07 68° 102° (ESE) 11:22:44 145.990 - 145.960
AIST 2D 21 Sep 11:24:32 11:27:56 43° 73° (ENE) 11:31:20 435.315
TIGRISAT 21 Sep 11:27:44 11:31:02 21° 267° (W) 11:34:24 435.000
M-CUBED/EXP-1 PRIME 21 Sep 11:36:02 11:38:41 16° 60° (ENE) 11:41:16 437.505
DELFI C3 21 Sep 11:38:36 11:42:11 35° 289° (WNW) 11:45:45 145.870
Max Valier Satellite 21 Sep 11:42:18 11:45:50 39° 288° (WNW) 11:49:20 145.860
NANOSAT C BR1 21 Sep 11:44:16 11:47:52 29° 68° (ENE) 11:51:31 145.865
O/OREOS (USA 219) 21 Sep 11:50:27 11:52:44 13° 49° (NE) 11:55:00 437.305
DUCHIFAT 1 21 Sep 12:13:44 12:17:47 53° 73° (ENE) 12:21:53 145.980
LO-87 21 Sep 12:20:37 12:24:10 53° 100° (E) 12:27:41 145.935 - 145.965
POLYITAN 1 21 Sep 12:23:11 12:27:23 87° 77° (ENE) 12:31:39 437.675
ESTCUBE 1 21 Sep 12:26:06 12:30:21 39° 98° (E) 12:34:33 437.505/2401.250
EO-79 21 Sep 12:28:17 12:32:29 83° 256° (WSW) 12:36:44 145.935-145.965
RS-15 21 Sep 12:31:04 12:41:21 30° 18° (NNE) 12:51:14 29.354- 29.394
QB50P2 21 Sep 12:41:03 12:45:09 53° 260° (W) 12:49:19 145.880/145.840
Gurwin Techsat 1B 21 Sep 12:49:34 12:52:41 16° 59° (ENE) 12:55:48 435.225
YUBILEINY 21 Sep 12:59:11 13:07:39 59° 91° (E) 13:16:06 435.215
BUGSAT 1 21 Sep 12:59:57 13:03:46 45° 72° (ENE) 13:07:39 437.445
AIST 2D 21 Sep 13:00:01 13:01:21 12° 270° (W) 13:02:41 435.315
VELOX 1 21 Sep 13:07:27 13:10:43 20° 93° (E) 13:13:58 145.980
M-CUBED/EXP-1 PRIME 21 Sep 13:08:30 13:12:47 53° 254° (WSW) 13:16:48 437.505
AO-7 21 Sep 13:11:54 13:14:45 12° 40° (NE) 13:17:36 .
NANOSAT C BR1 21 Sep 13:20:05 13:23:33 25° 265° (W) 13:27:03 145.865
Oscar 19 21 Sep 13:23:33 13:28:27 43° 69° (ENE) 13:33:22 437.125/150
SPROUT 21 Sep 13:26:20 13:30:27 44° 99° (E) 13:34:33 437.525
O/OREOS (USA 219) 21 Sep 13:28:09 13:32:46 83° 248° (WSW) 13:37:22 437.305
NO-84 21 Sep 13:47:54 13:50:55 22° 130° (SE) 13:53:46 435.350 FM
DUCHIFAT 1 21 Sep 13:51:38 13:53:46 14° 269° (W) 13:55:54 145.980
LO-87 21 Sep 13:55:59 13:57:07 11° 296° (WNW) 13:58:15 145.935 - 145.965
ESTCUBE 1 21 Sep 14:03:28 14:06:53 22° 295° (WNW) 14:10:18 437.505/2401.250
50 SAT 21 Sep 14:17:18 14:20:23 35° 98° (E) 14:23:26 437.505
UKube-1 21 Sep 14:23:10 14:26:31 22° 94° (E) 14:29:52 .
DX 1 21 Sep 14:24:11 14:28:10 34° 98° (E) 14:32:06 434.975-435.025
ITAMSAT 1 21 Sep 14:26:02 14:28:10 13° 57° (ENE) 14:30:19 435.822/435.867
Gurwin Techsat 1B 21 Sep 14:26:40 14:31:59 77° 257° (WSW) 14:37:19 435.225
BUGSAT 1 21 Sep 14:37:04 14:39:22 15° 268° (W) 14:41:42 437.445
VELOX 1 21 Sep 14:43:13 14:47:18 39° 290° (WNW) 14:51:22 145.980
RS-15 21 Sep 14:44:48 14:56:50 65° 49° (NE) 15:08:11 29.354- 29.394
YUBILEINY 21 Sep 14:57:18 15:04:54 33° 292° (WNW) 15:12:31 435.215
AO-7 21 Sep 14:57:39 15:05:30 48° 62° (ENE) 15:13:21 .
SPROUT 21 Sep 15:03:04 15:06:01 18° 295° (WNW) 15:08:58 437.525
Oscar 19 21 Sep 15:03:42 15:07:55 25° 266° (W) 15:12:10 437.125/150
SO-50 21 Sep 15:19:02 15:23:27 60° 120° (ESE) 15:27:53 436.795
NO-84 21 Sep 15:24:33 15:28:10 49° 325° (NW) 15:31:30 435.350 FM
PCSat 21 Sep 15:25:35 15:30:34 39° 112° (ESE) 15:35:34 145.827
